Wind_Speed
22 21 20 19 18 18 18 17 16 15 13 13 14 14 14 14 13 12 12 11 12 13 14 15 16 16 15 15 15 15 15 14 13 13 13 13 14 16 16 15 14 13
23 22 21 20 19 19 19 18 16 15 14 14 15 15 15 16 15 14 13 13 14 15 16 17 17 16 16 16 16 15 15 16 15 13 13 12 14 17 18 18 16 14
23 22 21 20 19 18 19 18 17 16 15 15 15 16 16 16 16 16 15 15 17 17 17 17 17 16 16 15 15 16 18 19 19 15 13 12 13 16 20 21 20 17
23 22 21 20 19 19 20 20 18 16 16 16 15 15 16 17 16 17 18 18 18 18 18 18 18 18 17 16 17 19 21 23 22 19 15 14 15 17 20 23 23 20
23 22 21 20 19 20 21 21 19 17 17 17 17 17 18 18 17 16 18 20 20 20 20 20 20 20 19 19 20 21 23 24 23 21 20 19 20 22 24 25 24 21
24 23 21 20 20 21 22 21 19 18 18 18 19 19 20 20 19 18 19 21 22 23 24 24 23 23 23 25 26 24 24 25 22 22 23 23 25 27 26 25 24 22
25 24 22 20 20 21 22 20 19 19 20 20 20 21 21 22 21 21 21 23 24 26 27 27 27 27 28 30 30 27 26 26 23 22 23 23 27 29 26 24 24 24
25 25 23 22 22 22 22 20 20 20 21 21 22 21 22 23 23 23 24 25 25 26 28 29 29 31 33 33 32 30 29 28 26 25 23 23 27 29 27 27 26 25
26 25 24 23 23 24 23 22 21 22 22 22 23 23 23 23 24 25 26 27 27 28 29 29 30 31 34 35 34 33 32 31 31 28 25 24 28 29 29 30 27 25
27 25 24 24 24 25 24 23 23 23 23 23 25 25 24 24 25 27 28 29 29 30 31 31 31 32 32 34 35 35 35 35 33 30 27 26 28 29 31 31 28 24
27 26 25 25 25 25 24 23 23 24 24 25 26 26 25 24 26 27 28 29 30 31 32 34 35 35 35 34 35 35 36 37 36 34 31 28 27 29 32 31 27 24
27 27 25 24 24 25 25 23 22 23 25 25 25 27 27 26 27 28 28 30 30 31 33 34 36 37 38 38 36 35 36 37 37 36 35 32 29 30 32 31 26 24
26 25 24 23 23 24 24 22 22 23 24 24 24 26 28 28 29 30 31 31 32 33 34 35 36 38 39 39 39 38 37 37 37 37 36 34 32 31 32 30 25 23
23 23 23 22 22 23 23 22 22 22 24 24 24 25 27 28 30 31 32 33 33 35 36 36 37 39 40 40 39 40 40 38 37 37 36 35 33 31 31 29 25 23
22 22 23 22 23 24 23 23 22 22 23 25 25 24 25 28 30 31 32 33 34 35 36 36 37 39 40 40 39 39 40 40 39 38 37 36 34 32 31 29 25 24
24 23 23 24 24 24 23 23 23 23 23 25 25 25 26 28 31 32 32 32 33 34 35 35 37 39 39 39 39 38 39 40 40 40 38 36 35 33 31 27 25 25
25 25 25 25 25 25 24 24 23 23 24 25 26 27 28 30 32 32 31 31 31 33 34 36 36 37 37 38 38 38 39 39 40 40 39 36 36 35 31 28 26 25
25 27 27 27 26 26 25 24 24 24 25 26 28 30 30 31 31 32 33 32 32 32 33 35 35 35 36 38 37 38 39 39 39 40 39 37 36 35 32 30 28 27
25 28 29 28 27 27 25 25 25 26 27 28 30 30 30 30 30 32 34 34 33 32 32 34 34 35 37 37 36 38 39 38 38 38 38 37 36 34 32 31 30 28
26 28 29 29 29 27 26 27 28 29 30 30 29 28 28 29 30 31 32 32 31 30 31 33 34 35 37 36 35 37 39 36 35 35 36 36 36 35 33 32 32 29
28 28 29 30 29 28 28 30 30 30 30 28 26 26 26 27 27 27 27 27 27 27 28 31 33 35 37 36 34 36 38 36 34 34 35 35 36 35 33 32 33 31
29 29 30 29 29 30 30 30 30 29 27 26 25 24 24 23 23 23 23 22 23 24 26 30 34 37 39 37 33 34 38 38 36 35 35 35 35 34 32 32 32 31
29 29 29 30 31 31 30 28 27 26 25 24 23 22 21 21 21 20 20 19 21 23 25 29 34 38 39 37 34 34 36 36 35 35 35 35 35 33 33 34 34 32
30 30 31 32 32 30 28 26 25 24 23 21 20 20 20 19 19 20 20 20 22 23 24 27 32 36 36 35 34 34 34 33 34 36 35 35 35 34 34 37 37 35
32 32 32 31 30 28 27 25 23 22 20 18 19 19 18 18 23 24 23 22 23 24 24 24 28 32 34 33 33 32 32 32 34 35 36 35 35 36 38 40 38 35
34 33 30 30 30 28 26 23 20 18 16 16 17 17 19 24 26 25 24 24 25 25 25 24 25 28 30 31 31 31 31 32 33 34 35 35 36 37 37 36 34 33
Wind_Direction
214 213 214 216 217 219 222 225 224 225 226 223 226 231 235 239 243 245 251 261 274 284 292 298 302 304 307 309 313 318 323 328 332 333 334 342 346 343 336 326 317 311
212 212 213 215 216 218 222 226 225 225 229 228 229 234 238 241 244 246 251 259 268 278 286 292 298 302 306 309 312 318 323 325 325 324 327 340 349 346 338 328 318 309
212 214 215 216 218 220 223 226 226 227 231 232 233 237 241 244 246 249 254 257 263 274 282 289 296 302 309 313 315 320 324 322 319 318 321 333 344 342 334 326 317 308
212 216 217 218 220 221 225 228 228 229 233 236 240 243 245 248 249 251 256 261 266 275 282 289 295 301 306 308 311 316 320 319 315 312 314 324 330 328 324 320 313 306
214 218 219 221 222 223 226 231 232 234 236 239 244 247 248 253 257 258 260 266 274 279 283 287 292 296 297 296 301 308 314 317 315 310 308 313 317 315 314 313 307 302
216 219 221 222 225 226 229 234 238 240 241 244 248 250 252 258 265 268 268 274 280 283 285 287 288 291 292 293 296 299 304 309 312 312 308 307 310 311 311 311 305 297
218 221 223 225 227 229 232 238 243 246 246 249 253 255 259 264 269 272 274 279 284 286 288 288 286 287 289 292 293 294 295 298 302 308 308 308 313 313 309 307 305 298
222 223 225 228 230 234 237 242 247 248 250 255 261 264 267 270 273 274 276 280 284 287 291 291 288 287 288 290 290 290 290 291 295 299 303 309 316 315 309 304 302 297
225 226 228 231 235 238 242 248 250 251 255 260 265 271 275 276 277 278 279 282 283 285 289 293 292 291 292 291 290 288 287 289 292 295 299 309 314 316 314 307 298 292
226 228 230 233 238 242 246 251 254 256 259 262 266 271 277 280 280 280 282 285 286 287 288 291 292 292 293 294 291 287 286 288 290 291 294 304 310 313 316 311 298 288
228 230 232 235 240 245 248 252 257 259 260 263 266 271 277 280 280 282 285 289 292 293 291 290 290 290 291 293 292 288 286 286 288 288 290 297 304 308 313 311 298 286
229 232 234 236 239 245 249 252 255 258 260 262 265 271 277 279 279 281 286 291 295 296 294 292 291 290 289 290 291 289 287 287 288 288 288 292 297 302 310 311 296 282
229 232 234 235 238 243 248 250 251 256 262 265 266 267 273 279 283 285 287 290 293 294 294 294 292 291 289 289 289 288 288 289 289 288 287 290 294 298 307 309 294 279
230 231 234 235 236 240 244 247 248 252 260 268 271 269 271 276 282 286 289 290 291 291 291 292 292 290 289 289 289 288 288 289 289 288 287 288 291 295 303 305 293 278
231 232 234 233 234 236 240 244 247 251 257 265 271 274 275 275 278 282 285 287 288 288 288 289 289 288 288 289 290 289 288 288 288 287 287 287 289 291 296 299 292 281
232 234 234 234 235 236 239 244 248 251 256 262 268 272 274 275 277 280 282 283 285 286 286 286 285 286 288 289 290 289 288 287 286 285 285 285 286 287 290 291 287 283
232 233 235 236 238 239 241 245 247 251 256 261 265 268 270 272 276 280 283 284 285 286 285 285 285 285 286 287 288 286 284 284 283 282 281 282 283 283 284 283 281 281
229 231 235 236 237 241 243 244 247 251 255 258 262 266 270 273 276 280 284 287 288 289 289 288 287 285 282 281 282 282 281 280 279 279 278 278 279 279 279 278 276 273
227 229 233 234 236 239 241 242 245 249 252 256 261 266 271 274 278 282 286 289 291 294 294 292 290 288 283 279 279 280 280 279 278 277 277 277 275 274 275 275 272 269
228 229 231 233 235 237 237 239 243 248 253 259 264 267 271 275 280 284 287 290 292 295 296 294 292 290 286 281 278 278 279 279 278 276 275 274 272 271 272 272 271 270
228 228 230 232 234 235 236 239 245 252 256 261 265 267 271 275 280 284 287 288 291 293 294 293 292 291 287 282 278 278 278 278 278 276 273 271 270 270 270 270 271 271
227 227 229 231 233 234 237 242 249 254 257 261 264 266 270 274 278 281 282 284 289 293 295 294 291 289 287 282 278 276 276 276 277 275 272 269 267 266 265 267 271 273
226 226 228 231 233 236 241 246 250 253 257 259 261 264 267 269 271 274 276 283 291 296 300 297 291 288 288 287 285 279 275 274 275 274 271 268 264 262 263 265 268 269
225 227 229 232 235 239 242 245 247 251 254 254 258 263 263 268 278 281 280 288 296 301 306 302 293 291 292 292 289 282 274 272 274 274 272 267 262 259 260 262 264 266
226 228 230 234 238 239 241 243 244 246 250 255 260 260 263 283 296 290 283 289 298 303 309 306 297 295 296 294 291 285 276 271 271 272 271 268 263 259 259 260 262 262
225 226 229 233 236 236 237 239 241 246 258 264 262 264 282 297 296 286 284 293 298 301 307 307 300 296 296 294 291 288 282 276 272 271 272 272 269 266 264 263 261 257
Height
3177 3179 3180 3181 3182 3183 3185 3186 3187 3187 3188 3189 3190 3191 3192 3193 3193 3194 3195 3195 3195 3195 3194 3194 3194 3194 3194 3193 3192 3192 3192 3192 3192 3191 3190 3189 3189 3189 3188 3188 3187 3187
3175 3177 3178 3179 3181 3182 3183 3184 3185 3186 3187 3188 3189 3190 3190 3191 3192 3193 3193 3194 3193 3193 3193 3193 3193 3193 3193 3192 3192 3192 3192 3191 3191 3190 3189 3188 3188 3188 3188 3187 3186 3186
3173 3175 3176 3177 3179 3180 3181 3182 3184 3185 3186 3186 3187 3188 3188 3189 3190 3191 3192 3192 3192 3192 3192 3191 3191 3191 3191 3191 3191 3191 3191 3190 3190 3189 3188 3187 3187 3186 3187 3187 3186 3186
3171 3173 3174 3176 3177 3178 3179 3180 3182 3183 3184 3184 3185 3186 3187 3187 3189 3189 3190 3190 3190 3190 3189 3189 3189 3189 3190 3190 3190 3189 3189 3189 3189 3188 3188 3187 3186 3186 3186 3186 3185 3185
3169 3171 3172 3174 3175 3176 3177 3178 3180 3181 3182 3183 3183 3184 3184 3185 3187 3188 3188 3188 3187 3187 3187 3187 3187 3187 3187 3187 3187 3187 3188 3188 3187 3187 3187 3187 3186 3186 3186 3185 3184 3183
3167 3169 3171 3172 3173 3174 3175 3176 3177 3179 3180 3181 3181 3182 3182 3183 3184 3185 3186 3186 3185 3185 3185 3186 3186 3186 3185 3185 3185 3185 3186 3186 3186 3186 3185 3185 3184 3184 3184 3184 3183 3182
3165 3166 3168 3170 3171 3172 3173 3174 3175 3176 3177 3178 3179 3180 3180 3181 3182 3183 3183 3183 3183 3183 3183 3184 3184 3184 3184 3183 3183 3183 3183 3183 3183 3184 3184 3184 3183 3183 3182 3182 3181 3181
3162 3164 3166 3168 3169 3169 3171 3172 3173 3174 3175 3176 3176 3177 3178 3179 3180 3181 3181 3181 3181 3181 3181 3181 3182 3182 3182 3182 3182 3181 3181 3181 3181 3181 3181 3181 3181 3181 3180 3179 3179 3178
3160 3162 3164 3165 3166 3167 3168 3170 3171 3172 3173 3174 3174 3175 3176 3177 3177 3178 3178 3178 3179 3179 3179 3179 3179 3179 3179 3179 3180 3179 3179 3178 3178 3178 3178 3178 3178 3178 3177 3176 3176 3175
3158 3160 3162 3163 3164 3165 3166 3168 3169 3170 3171 3172 3173 3172 3173 3175 3175 3175 3176 3175 3176 3177 3177 3177 3177 3177 3176 3176 3177 3177 3176 3176 3176 3175 3175 3175 3174 3174 3174 3173 3173 3172
3155 3157 3159 3160 3161 3162 3164 3166 3167 3168 3168 3170 3170 3170 3171 3172 3172 3173 3173 3172 3173 3174 3174 3174 3174 3174 3174 3174 3174 3174 3174 3173 3173 3173 3173 3172 3172 3171 3171 3170 3170 3169
3152 3154 3156 3158 3159 3160 3161 3163 3165 3165 3166 3167 3168 3168 3168 3168 3169 3169 3170 3170 3170 3170 3171 3171 3171 3171 3171 3171 3171 3171 3171 3170 3170 3170 3170 3170 3169 3168 3167 3167 3166 3166
3150 3152 3154 3155 3157 3158 3159 3161 3162 3163 3163 3164 3166 3166 3166 3166 3166 3166 3167 3167 3168 3167 3168 3168 3168 3168 3168 3168 3168 3168 3167 3167 3167 3167 3167 3166 3165 3165 3164 3163 3163 3163
3148 3150 3151 3153 3154 3156 3156 3158 3159 3161 3161 3161 3162 3163 3164 3164 3164 3164 3164 3165 3165 3164 3164 3165 3164 3164 3164 3165 3165 3165 3164 3164 3164 3163 3163 3163 3162 3162 3161 3160 3160 3160
3146 3147 3148 3150 3152 3153 3154 3155 3157 3158 3159 3159 3159 3160 3161 3161 3161 3161 3162 3162 3162 3161 3161 3161 3161 3160 3160 3161 3162 3161 3161 3160 3160 3160 3159 3159 3159 3159 3158 3157 3157 3157
3143 3144 3145 3147 3148 3150 3152 3153 3154 3156 3157 3156 3157 3157 3158 3158 3158 3158 3158 3159 3159 3158 3158 3158 3157 3156 3157 3157 3158 3158 3157 3156 3156 3155 3155 3155 3155 3155 3155 3154 3154 3154
3140 3142 3143 3144 3146 3147 3149 3151 3152 3153 3154 3154 3154 3154 3155 3155 3155 3155 3155 3156 3156 3156 3155 3154 3154 3154 3154 3153 3154 3153 3152 3151 3151 3150 3150 3151 3150 3150 3151 3150 3150 3151
3137 3139 3140 3141 3143 3145 3146 3148 3149 3150 3151 3151 3151 3151 3152 3152 3152 3152 3152 3152 3152 3152 3151 3151 3150 3150 3150 3149 3149 3149 3147 3146 3146 3146 3146 3146 3146 3146 3146 3145 3146 3146
3133 3135 3137 3139 3141 3142 3144 3145 3146 3147 3148 3148 3148 3149 3149 3149 3149 3149 3148 3148 3148 3148 3148 3147 3146 3146 3146 3145 3145 3144 3142 3142 3141 3141 3141 3141 3141 3141 3141 3141 3141 3141
3129 3132 3134 3136 3138 3140 3141 3142 3143 3144 3144 3145 3146 3147 3147 3147 3147 3146 3146 3145 3145 3145 3144 3143 3142 3142 3142 3141 3142 3140 3138 3137 3137 3137 3136 3136 3136 3136 3136 3136 3136 3137
3126 3129 3131 3133 3135 3137 3138 3139 3140 3141 3141 3142 3144 3145 3145 3145 3145 3144 3144 3144 3143 3142 3141 3139 3137 3137 3137 3138 3138 3137 3135 3133 3133 3132 3132 3131 3131 3131 3132 3131 3131 3133
3123 3126 3128 3130 3132 3133 3135 3136 3137 3138 3139 3140 3141 3142 3142 3143 3143 3142 3142 3141 3140 3139 3138 3136 3133 3132 3132 3133 3134 3133 3131 3130 3129 3128 3127 3127 3127 3127 3128 3127 3127 3129
3120 3123 3125 3127 3128 3130 3131 3133 3134 3135 3136 3138 3139 3139 3140 3140 3140 3140 3139 3138 3137 3135 3134 3132 3129 3128 3128 3129 3129 3129 3127 3126 3125 3124 3123 3123 3122 3123 3124 3123 3123 3124
3118 3120 3122 3124 3125 3127 3129 3131 3132 3133 3134 3136 3136 3137 3137 3137 3137 3136 3135 3134 3133 3132 3131 3129 3126 3124 3124 3125 3125 3124 3123 3122 3121 3120 3120 3119 3119 3120 3120 3119 3118 3119
3114 3117 3119 3121 3123 3125 3127 3128 3129 3131 3132 3133 3134 3134 3134 3134 3133 3133 3131 3130 3129 3128 3127 3126 3123 3121 3121 3120 3120 3119 3119 3118 3118 3117 3116 3116 3116 3116 3115 3113 3113 3113
3111 3113 3115 3118 3120 3122 3124 3125 3127 3128 3129 3130 3130 3131 3130 3130 3130 3129 3127 3126 3125 3124 3123 3122 3120 3118 3117 3116 3116 3115 3114 3114 3114 3114 3113 3113 3112 3112 3111 3110 3110 3109